K9SET Weather Reports


time (UTC)temp
C
wind
direction
speed
KPH
gust
KPH
rain 1hr
cm
rain 24hr
cm
rain mn
cm
humidity
%
barometer
mb
20260509090506 12 40 1.6 3.2 0.00 0.00 0.00 89 1007.7
20260509085505 12 18 1.6 3.2 0.00 0.00 0.00 88 1007.8
20260509084506 12 18 0.0 3.2 0.00 0.00 0.00 88 1008.1
20260509084005 12 336 0.0 1.6 0.00 0.00 0.00 88 1008.1
20260509083506 12 317 0.0 1.6 0.00 0.00 0.00 88 1008.1
20260509083006 13 317 0.0 4.8 0.00 0.00 0.00 87 1007.9
20260509082506 12 317 1.6 4.8 0.00 0.00 0.00 86 1007.9
20260509082005 12 109 1.6 4.8 0.00 0.00 0.00 87 1007.9
20260509081505 12 357 0.0 4.8 0.00 0.00 0.00 87 1007.9
20260509081006 12 48 0.0 3.2 0.00 0.00 0.00 88 1008.1
20260509080005 12 49 1.6 3.2 0.00 0.00 0.00 86 1007.8
20260509075506 13 49 0.0 3.2 0.00 0.00 0.00 86 1007.8
20260509074505 13 49 0.0 1.6 0.00 0.00 0.00 86 1007.8
20260509074006 13 49 0.0 1.6 0.00 0.00 0.00 86 1007.8
20260509073506 13 49 0.0 3.2 0.00 0.00 0.00 86 1007.9
20260509073005 13 49 0.0 4.8 0.00 0.00 0.00 86 1007.9
20260509072506 13 49 1.6 8.0 0.00 0.00 0.00 86 1007.9
20260509072005 13 41 1.6 8.0 0.00 0.00 0.00 87 1007.9
20260509071505 13 64 1.6 4.8 0.00 0.00 0.00 87 1007.9
20260509070505 13 135 1.6 3.2 0.00 0.00 0.00 85 1007.8
20260509070005 13 135 1.6 3.2 0.00 0.00 0.00 86 1007.9
20260509065005 13 135 0.0 1.6 0.00 0.00 0.00 85 1008.0
20260509064505 13 135 1.6 3.2 0.00 0.00 0.00 85 1008.1
20260509064005 13 135 0.0 3.2 0.00 0.00 0.00 85 1008.1
20260509063006 13 141 1.6 4.8 0.00 0.00 0.00 84 1008.3
20260509062505 13 148 1.6 4.8 0.00 0.00 0.00 84 1008.2
20260509062006 13 133 3.2 4.8 0.00 0.00 0.00 84 1008.3
20260509061506 13 144 3.2 4.8 0.00 0.00 0.00 84 1008.3
20260509061006 13 119 0.0 4.8 0.00 0.00 0.00 85 1008.3
20260509060505 13 120 1.6 4.8 0.00 0.00 0.00 85 1008.4
20260509060006 13 149 1.6 3.2 0.00 0.00 0.00 84 1008.5
20260509055506 13 149 1.6 3.2 0.00 0.00 0.00 83 1008.5
20260509055005 13 149 0.0 1.6 0.00 0.00 0.00 82 1008.6
20260509054505 13 149 0.0 0.0 0.00 0.00 0.00 83 1008.6
20260509054006 13 149 0.0 0.0 0.00 0.00 0.00 83 1008.7
20260509053005 13 149 0.0 1.6 0.00 0.00 0.00 83 1008.6
20260509052506 13 149 0.0 1.6 0.00 0.00 0.00 83 1008.7
20260509051006 14 149 0.0 1.6 0.00 0.00 0.00 82 1008.5
20260509050505 14 149 0.0 1.6 0.00 0.00 0.00 81 1008.5
20260509050005 14 149 0.0 1.6 0.00 0.00 0.00 80 1008.4
20260509045505 14 149 0.0 1.6 0.00 0.00 0.00 80 1008.4
20260509045005 14 149 0.0 1.6 0.00 0.00 0.00 81 1008.4
20260509044006 15 149 0.0 1.6 0.00 0.00 0.00 80 1008.4
20260509043506 15 149 0.0 1.6 0.00 0.00 0.00 78 1008.4
20260509043005 15 149 0.0 3.2 0.00 0.00 0.00 78 1008.4
20260509042506 15 153 1.6 3.2 0.00 0.00 0.00 74 1008.4
20260509041505 15 153 1.6 4.8 0.00 0.00 0.00 74 1008.5
20260509041005 15 163 1.6 3.2 0.00 0.00 0.00 73 1008.5
20260509040505 15 173 1.6 3.2 0.00 0.00 0.00 73 1008.5
20260509040005 15 173 1.6 4.8 0.00 0.00 0.00 71 1008.5
20260509035505 15 163 1.6 4.8 0.00 0.00 0.00 73 1008.6
20260509035005 15 169 1.6 4.8 0.00 0.00 0.00 70 1008.6
20260509034505 16 188 1.6 4.8 0.00 0.00 0.00 70 1008.6
20260509033505 16 169 1.6 4.8 0.00 0.00 0.00 69 1008.6
20260509033006 16 178 3.2 4.8 0.00 0.00 0.00 69 1008.7
20260509032505 16 181 3.2 4.8 0.00 0.00 0.00 69 1008.8
20260509032005 16 182 1.6 4.8 0.00 0.00 0.00 68 1008.8
20260509031505 16 187 1.6 4.8 0.00 0.00 0.00 68 1008.8
20260509031005 16 204 3.2 4.8 0.00 0.00 0.00 67 1008.8
20260509030505 16 171 1.6 8.0 0.00 0.00 0.00 68 1008.8
20260509030005 16 168 3.2 8.0 0.00 0.00 0.00 67 1008.9
20260509025505 16 177 3.2 4.8 0.00 0.00 0.00 68 1009.0
20260509025005 16 212 3.2 9.7 0.00 0.00 0.00 67 1009.1
20260509024505 16 177 3.2 9.7 0.00 0.00 0.00 67 1009.1
20260509024006 16 169 1.6 8.0 0.00 0.00 0.00 67 1009.1
20260509023505 17 173 1.6 8.0 0.00 0.00 0.00 66 1009.1
20260509023005 17 175 4.8 8.0 0.00 0.00 0.00 65 1009.1
20260509022505 17 171 3.2 8.0 0.00 0.00 0.00 65 1009.1
20260509022005 17 155 3.2 8.0 0.00 0.00 0.00 64 1009.1
20260509021505 17 182 1.6 8.0 0.00 0.00 0.00 64 1009.1
20260509021005 17 188 3.2 8.0 0.00 0.00 0.00 64 1009.1
20260509020506 17 223 3.2 9.7 0.00 0.00 0.00 63 1009.0
20260509020006 17 181 3.2 9.7 0.00 0.00 0.00 63 1009.0
20260509015505 17 179 3.2 9.7 0.00 0.00 0.00 65 1009.0
20260509015006 17 185 3.2 8.0 0.00 0.00 0.00 63 1009.0
20260509014504 17 199 3.2 8.0 0.00 0.00 0.00 64 1009.0
20260509014005 17 178 3.2 8.0 0.00 0.00 0.00 63 1009.0
20260509013505 17 196 1.6 4.8 0.00 0.00 0.00 63 1009.1
20260509013005 18 210 1.6 4.8 0.00 0.00 0.00 61 1009.1
20260509012505 18 224 3.2 9.7 0.00 0.00 0.00 61 1009.0
20260509012009 18 206 4.8 9.7 0.00 0.00 0.00 61 1009.0
20260509011506 18 206 3.2 8.0 0.00 0.00 0.00 61 1009.0
20260509011005 18 225 1.6 8.0 0.00 0.00 0.00 61 1009.0
20260509010005 18 216 3.2 9.7 0.00 0.00 0.00 61 1009.0
20260509005505 18 223 1.6 4.8 0.00 0.00 0.00 61 1009.1
20260509005005 18 254 1.6 4.8 0.00 0.00 0.00 60 1009.2
20260509004005 18 243 1.6 11.3 0.00 0.00 0.00 59 1009.1
20260509003505 18 233 3.2 8.0 0.00 0.00 0.00 59 1009.1
20260509003004 18 230 3.2 8.0 0.00 0.00 0.00 59 1009.2
20260509002505 19 233 1.6 8.0 0.00 0.00 0.00 59 1009.2
20260509002006 19 229 3.2 8.0 0.00 0.00 0.00 58 1009.2
20260509001505 19 233 3.2 4.8 0.00 0.00 0.00 59 1009.3
20260509001004 20 253 0.0 4.8 0.00 0.00 0.00 58 1009.3
20260509000505 20 255 1.6 8.0 0.00 0.00 0.00 57 1009.3
20260508235505 20 265 3.2 11.3 0.00 0.00 0.00 57 1009.3
20260508235004 20 269 4.8 19.3 0.00 0.00 0.00 56 1009.2
20260508234506 20 234 6.4 19.3 0.00 0.00 0.00 56 1009.3
20260508234004 20 212 4.8 19.3 0.00 0.00 0.00 55 1009.3
20260508233505 20 219 4.8 25.7 0.00 0.00 0.00 55 1009.3
20260508233004 21 262 8.0 25.7 0.00 0.00 0.00 54 1009.3
20260508232005 21 262 9.7 19.3 0.00 0.00 0.00 53 1009.3
20260508231506 21 240 9.7 25.7 0.00 0.00 0.00 53 1009.4
20260508231005 21 248 11.3 25.7 0.00 0.00 0.00 53 1009.3
20260508230504 21 251 4.8 29.0 0.00 0.00 0.00 55 1009.3
20260508230005 21 211 11.3 29.0 0.00 0.00 0.00 53 1009.3
20260508225504 21 217 6.4 20.9 0.00 0.00 0.00 54 1009.3
20260508224506 21 229 6.4 22.5 0.00 0.00 0.00 54 1009.2
20260508224004 21 203 3.2 22.5 0.00 0.00 0.00 54 1009.4
20260508223505 21 244 9.7 25.7 0.00 0.00 0.00 53 1009.4
20260508223005 21 277 9.7 25.7 0.00 0.00 0.00 52 1009.5
20260508222504 22 244 12.9 22.5 0.00 0.00 0.00 52 1009.4
20260508222005 22 212 8.0 20.9 0.00 0.00 0.00 52 1009.4
20260508221504 22 301 8.0 22.5 0.00 0.00 0.00 51 1009.4
20260508221004 22 222 8.0 22.5 0.00 0.00 0.00 52 1009.4
20260508220005 21 280 8.0 24.1 0.00 0.00 0.00 52 1009.3
20260508215504 21 240 9.7 24.1 0.00 0.00 0.00 51 1009.3
20260508215005 21 233 4.8 20.9 0.00 0.00 0.00 52 1009.2
20260508214505 22 251 8.0 20.9 0.00 0.00 0.00 51 1009.4
20260508214004 22 278 4.8 20.9 0.00 0.00 0.00 52 1009.2
20260508213005 22 194 8.0 22.5 0.00 0.00 0.00 51 1009.3
20260508212505 22 253 11.3 22.5 0.00 0.00 0.00 50 1009.3
20260508212004 22 230 11.3 22.5 0.00 0.00 0.00 50 1009.5
20260508211005 22 277 14.5 24.1 0.00 0.00 0.00 50 1009.5
20260508210504 22 249 4.8 20.9 0.00 0.00 0.00 53 1009.7
20260508210004 21 255 8.0 22.5 0.00 0.00 0.00 52 1009.7
20260508205506 22 254 4.8 22.5 0.00 0.00 0.00 52 1009.7
20260508204504 22 253 11.3 25.7 0.00 0.00 0.00 50 1010.0
20260508203505 22 263 8.0 32.2 0.00 0.00 0.00 50 1010.1
20260508202504 22 229 9.7 25.7 0.00 0.00 0.00 49 1010.5
20260508202005 22 226 14.5 25.7 0.00 0.00 0.00 50 1010.5
20260508201505 22 236 8.0 25.7 0.00 0.00 0.00 50 1010.6
20260508200504 22 243 12.9 27.4 0.00 0.00 0.00 50 1010.6
20260508200004 22 271 8.0 20.9 0.00 0.00 0.00 51 1010.8
20260508195504 22 288 9.7 20.9 0.00 0.00 0.00 50 1010.8
20260508195004 22 230 4.8 22.5 0.00 0.00 0.00 48 1011.0
20260508194506 22 279 4.8 22.5 0.00 0.00 0.00 53 1011.1
20260508194005 22 300 8.0 22.5 0.00 0.00 0.00 50 1011.1
20260508193506 22 249 11.3 19.3 0.00 0.00 0.00 51 1011.1
20260508193004 22 307 6.4 22.5 0.00 0.00 0.00 49 1011.3
20260508192504 22 205 9.7 22.5 0.00 0.00 0.00 49 1011.3
20260508192004 22 307 9.7 29.0 0.00 0.00 0.00 50 1011.6
20260508191505 22 243 11.3 29.0 0.00 0.00 0.00 50 1011.5
20260508191004 22 245 9.7 22.5 0.00 0.00 0.00 49 1011.6
20260508190504 22 233 11.3 27.4 0.00 0.00 0.00 51 1011.6
20260508190004 22 241 9.7 32.2 0.00 0.00 0.00 51 1011.7
20260508185505 22 238 12.9 32.2 0.00 0.00 0.00 50 1011.8
20260508185005 21 289 8.0 32.2 0.00 0.00 0.00 52 1012.1
20260508184504 21 258 16.1 32.2 0.00 0.00 0.00 50 1012.1
20260508184004 21 231 8.0 32.2 0.00 0.00 0.00 54 1012.1
20260508183504 21 234 12.9 24.1 0.00 0.00 0.00 50 1011.9
20260508182005 21 234 11.3 22.5 0.00 0.00 0.00 51 1011.9
20260508181004 21 314 9.7 29.0 0.00 0.00 0.00 51 1011.8
20260508180504 21 258 12.9 24.1 0.00 0.00 0.00 48 1011.8
20260508180005 21 239 9.7 25.7 0.00 0.00 0.00 49 1011.8
20260508174504 21 243 6.4 22.5 0.00 0.00 0.00 52 1012.2
20260508174004 21 229 9.7 22.5 0.00 0.00 0.00 51 1012.3
20260508173005 21 242 8.0 19.3 0.00 0.00 0.00 51 1012.7
20260508172504 21 233 3.2 19.3 0.00 0.00 0.00 52 1012.8
20260508172004 21 180 4.8 19.3 0.00 0.00 0.00 54 1012.9
20260508171505 21 306 8.0 24.1 0.00 0.00 0.00 53 1012.9
20260508171004 21 225 14.5 24.1 0.00 0.00 0.00 51 1013.2
20260508170504 21 248 11.3 24.1 0.00 0.00 0.00 52 1013.1
20260508170005 20 256 9.7 22.5 0.00 0.00 0.00 53 1013.2
20260508165504 20 251 8.0 22.5 0.00 0.00 0.00 54 1013.4
20260508165004 20 223 11.3 32.2 0.00 0.00 0.00 51 1013.5
20260508164504 20 274 14.5 32.2 0.00 0.00 0.00 52 1013.5
20260508163503 20 256 12.9 24.1 0.00 0.00 0.00 53 1013.9
20260508162504 20 238 9.7 22.5 0.00 0.00 0.00 53 1014.0
20260508162004 20 256 11.3 24.1 0.00 0.00 0.00 52 1014.2
20260508160504 20 237 6.4 20.9 0.00 0.00 0.00 53 1014.2
20260508160006 20 232 6.4 20.9 0.00 0.00 0.00 56 1014.2
20260508155503 20 276 11.3 27.4 0.00 0.00 0.00 54 1014.3
20260508154504 20 275 9.7 22.5 0.00 0.00 0.00 54 1014.4
20260508154005 20 290 8.0 19.3 0.00 0.00 0.00 53 1014.5
20260508153504 19 262 6.4 19.3 0.00 0.00 0.00 56 1014.8
20260508153005 19 236 9.7 19.3 0.00 0.00 0.00 54 1014.8
20260508152504 19 288 8.0 20.9 0.00 0.00 0.00 55 1014.8
20260508152005 19 250 8.0 20.9 0.00 0.00 0.00 55 1014.8
20260508151504 19 249 8.0 14.5 0.00 0.00 0.00 56 1014.8
20260508151006 18 234 8.0 20.9 0.00 0.00 0.00 56 1014.9
20260508150506 18 264 8.0 20.9 0.00 0.00 0.00 57 1015.1
20260508150006 18 233 8.0 20.9 0.00 0.00 0.00 57 1015.1
20260508145006 17 293 4.8 24.1 0.00 0.00 0.00 61 1015.3
20260508144507 17 223 14.5 24.1 0.00 0.00 0.00 58 1015.4
20260508144006 17 274 9.7 22.5 0.00 0.00 0.00 59 1015.3
20260508143506 17 297 9.7 20.9 0.00 0.00 0.00 61 1015.3
20260508142006 17 262 6.4 16.1 0.00 0.00 0.00 64 1015.5
20260508141507 16 290 8.0 16.1 0.00 0.00 0.00 65 1015.4
20260508141006 16 295 6.4 19.3 0.00 0.00 0.00 62 1015.4
20260508140506 16 276 8.0 19.3 0.00 0.00 0.00 64 1015.4
20260508135506 16 285 8.0 16.1 0.00 0.00 0.00 65 1015.4
20260508135006 15 289 8.0 16.1 0.00 0.00 0.00 65 1015.5
20260508134506 15 286 3.2 9.7 0.00 0.00 0.00 66 1015.5
20260508134007 15 296 3.2 4.8 0.00 0.00 0.00 67 1015.5
20260508133506 15 261 3.2 8.0 0.00 0.00 0.00 69 1015.4
20260508133006 14 242 1.6 14.5 0.00 0.00 0.00 70 1015.4
20260508132006 14 232 3.2 14.5 0.00 0.00 0.00 71 1015.5
20260508131507 14 274 3.2 9.7 0.00 0.00 0.00 72 1015.4
20260508131006 13 254 1.6 4.8 0.00 0.00 0.00 72 1015.3
20260508130507 13 273 1.6 4.8 0.00 0.00 0.00 76 1015.3
20260508130006 13 216 1.6 3.2 0.00 0.00 0.00 80 1015.4
20260508125506 12 164 0.0 0.0 0.00 0.00 0.00 81 1015.4
20260508125005 12 139 0.0 1.6 0.00 0.00 0.00 85 1015.3
20260508124506 11 138 0.0 1.6 0.00 0.00 0.00 87 1015.2
20260508124006 10 140 0.0 1.6 0.00 0.00 0.00 89 1015.4
20260508123506 10 138 0.0 3.2 0.00 0.00 0.00 92 1015.3
20260508123006 9 135 1.6 3.2 0.00 0.00 0.00 95 1015.3
20260508122507 8 136 0.0 1.6 0.00 0.00 0.00 97 1015.4
20260508122007 7 140 0.0 3.2 0.00 0.00 0.00 96 1015.4
20260508121506 7 140 1.6 3.2 0.00 0.00 0.00 96 1015.3
20260508120507 6 140 0.0 1.6 0.00 0.00 0.00 96 1015.3
20260508115511 5 140 0.0 1.6 0.00 0.00 0.00 96 1015.1
20260508115007 4 140 0.0 1.6 0.00 0.00 0.00 96 1015.1
20260508114006 3 140 0.0 1.6 0.00 0.00 0.00 96 1015.1
20260508113506 3 140 0.0 1.6 0.00 0.00 0.00 96 1015.0
20260508113007 3 140 0.0 1.6 0.00 0.00 0.00 96 1015.1
20260508112506 3 140 0.0 1.6 0.00 0.00 0.00 96 1015.0
20260508112006 3 140 0.0 1.6 0.00 0.00 0.00 96 1015.0
20260508110506 3 140 0.0 1.6 0.00 0.00 0.00 96 1014.8
20260508110006 3 140 0.0 4.8 0.00 0.00 0.00 96 1014.8
20260508105507 3 140 1.6 4.8 0.00 0.00 0.00 96 1014.8
20260508105006 3 128 0.0 3.2 0.00 0.00 0.00 96 1014.8
20260508104507 3 127 1.6 3.2 0.00 0.00 0.00 96 1014.8
20260508104006 3 127 0.0 1.6 0.00 0.00 0.00 96 1014.8
20260508103506 3 127 0.0 1.6 0.00 0.00 0.00 96 1014.8
20260508103006 3 127 0.0 1.6 0.00 0.00 0.00 96 1014.7
20260508102005 3 127 0.0 0.0 0.00 0.00 0.00 96 1014.7
20260508101507 3 127 0.0 1.6 0.00 0.00 0.00 96 1014.7
20260508101006 3 127 0.0 1.6 0.00 0.00 0.00 96 1014.6
20260508100506 3 127 0.0 1.6 0.00 0.00 0.00 96 1014.7
20260508100006 3 127 0.0 3.2 0.00 0.00 0.00 96 1014.7
20260508095507 3 127 1.6 3.2 0.00 0.00 0.00 96 1014.7
20260508095007 3 127 1.6 3.2 0.00 0.00 0.00 96 1014.7
20260508094506 3 127 1.6 3.2 0.00 0.00 0.00 96 1014.7
20260508094005 3 131 1.6 4.8 0.00 0.00 0.00 96 1014.7
20260508093506 3 134 1.6 4.8 0.00 0.00 0.00 96 1014.8
20260508093006 3 139 3.2 8.0 0.00 0.00 0.00 96 1014.8
20260508092505 3 131 4.8 8.0 0.00 0.00 0.00 96 1014.8
20260508092006 3 131 3.2 4.8 0.00 0.00 0.00 96 1014.7
20260508091507 3 149 1.6 4.8 0.00 0.00 0.00 96 1014.7
20260508091006 3 150 1.6 4.8 0.00 0.00 0.00 96 1014.7